YV2968 KCLE-KBOS

Flight info

Callsign YV2968
Flight time N/A
Altitude 35000
Route PFLYD1 JASEE JHW Q82 PONCT JFUND2
Aircraft C525/L-VGDW/C

Departure

Time 2026-05-08 00:05
Airport Cleveland Hopkins International Airport (KCLE)

Arrival

Time N/A
Airport Boston Logan International Airport (KBOS)
Time Latitude Longitude Altitude Speed Heading
2026-05-07 23:47 41.40223 -81.85407 780 ft 0 kts 270°
2026-05-08 00:00 41.40223 -81.85408 780 ft 0 kts 291°
2026-05-08 00:00 41.40248 -81.85413 780 ft 7 kts 360°
2026-05-08 00:00 41.40374 -81.85446 778 ft 19 kts 343°
2026-05-08 00:00 41.40466 -81.85487 778 ft 22 kts 341°
2026-05-08 00:01 41.40601 -81.85455 776 ft 23 kts 48°
2026-05-08 00:01 41.40709 -81.85283 778 ft 25 kts 51°
2026-05-08 00:01 41.40828 -81.85095 780 ft 27 kts 50°
2026-05-08 00:01 41.41001 -81.84822 782 ft 30 kts 50°
2026-05-08 00:02 41.41085 -81.84681 785 ft 28 kts 51°
2026-05-08 00:02 41.41211 -81.84487 785 ft 26 kts 51°
2026-05-08 00:02 41.41311 -81.84329 785 ft 15 kts 49°
2026-05-08 00:02 41.41381 -81.84221 785 ft 14 kts 49°
2026-05-08 00:03 41.41456 -81.84148 785 ft 12 kts 338°
2026-05-08 00:03 41.41513 -81.84225 784 ft 11 kts 260°
2026-05-08 00:03 41.41490 -81.84269 785 ft 0 kts 231°
2026-05-08 00:04 41.41488 -81.84273 785 ft 5 kts 231°
2026-05-08 00:04 41.41367 -81.84468 784 ft 53 kts 233°
2026-05-08 00:04 41.40965 -81.85098 825 ft 119 kts 233°
2026-05-08 00:04 41.40409 -81.86005 1338 ft 138 kts 240°
2026-05-08 00:05 41.39727 -81.87049 1911 ft 161 kts 231°
2026-05-08 00:05 41.39022 -81.88018 2366 ft 187 kts 230°
2026-05-08 00:05 41.38548 -81.88671 2700 ft 200 kts 230°
2026-05-08 00:05 41.38370 -81.88917 2830 ft 204 kts 230°
2026-05-08 00:06 41.37431 -81.90221 3520 ft 220 kts 230°
2026-05-08 00:06 41.36335 -81.91737 4356 ft 231 kts 230°
2026-05-08 00:06 41.35206 -81.93293 5243 ft 237 kts 230°
2026-05-08 00:06 41.34052 -81.94895 6168 ft 240 kts 231°
2026-05-08 00:07 41.32510 -81.97058 7415 ft 241 kts 233°
2026-05-08 00:07 41.31298 -81.98620 8347 ft 244 kts 227°
2026-05-08 00:07 41.30585 -81.99750 8939 ft 234 kts 249°
2026-05-08 00:07 41.30400 -82.01817 9839 ft 223 kts 285°
2026-05-08 00:08 41.31195 -82.03538 10747 ft 222 kts 317°
2026-05-08 00:08 41.32664 -82.04218 11651 ft 235 kts 351°
2026-05-08 00:08 41.34731 -82.03022 12851 ft 263 kts 36°
2026-05-08 00:08 41.35437 -82.01636 13441 ft 277 kts 57°
2026-05-08 00:09 41.36115 -81.98290 14620 ft 281 kts 73°
2026-05-08 00:09 41.36434 -81.95699 15468 ft 281 kts 75°
2026-05-08 00:09 41.36586 -81.93990 16010 ft 280 kts 77°
2026-05-08 00:09 41.36773 -81.91422 16810 ft 279 kts 78°
2026-05-08 00:10 41.36938 -81.88880 17580 ft 277 kts 78°
2026-05-08 00:10 41.37100 -81.86361 18322 ft 273 kts 73°
2026-05-08 00:10 41.37974 -81.83349 19260 ft 258 kts 52°
2026-05-08 00:10 41.38822 -81.81255 19942 ft 255 kts 50°
2026-05-08 00:11 41.39393 -81.79887 20381 ft 254 kts 49°
2026-05-08 00:11 41.40240 -81.77848 21000 ft 254 kts 49°
2026-05-08 00:11 41.41366 -81.75101 21789 ft 254 kts 49°
2026-05-08 00:11 41.41919 -81.73737 22176 ft 254 kts 50°
2026-05-08 00:12 41.42751 -81.71671 22727 ft 254 kts 49°
2026-05-08 00:12 41.43850 -81.68916 23426 ft 254 kts 49°
2026-05-08 00:12 41.44395 -81.67541 23763 ft 254 kts 49°
2026-05-08 00:12 41.45225 -81.65444 24236 ft 256 kts 49°
2026-05-08 00:13 41.46050 -81.63356 24717 ft 259 kts 49°
2026-05-08 00:13 41.46891 -81.61221 25157 ft 262 kts 49°
2026-05-08 00:13 41.47740 -81.59060 25585 ft 265 kts 49°
2026-05-08 00:13 41.48881 -81.56145 26166 ft 267 kts 50°
2026-05-08 00:14 41.49463 -81.54655 26440 ft 269 kts 49°
2026-05-08 00:14 41.50610 -81.51715 26970 ft 271 kts 50°
2026-05-08 00:14 41.51483 -81.49477 27339 ft 273 kts 50°
2026-05-08 00:14 41.52081 -81.47939 27593 ft 275 kts 50°
2026-05-08 00:15 41.52981 -81.45630 27909 ft 280 kts 50°
2026-05-08 00:15 41.53892 -81.43294 28182 ft 288 kts 50°
2026-05-08 00:15 41.55151 -81.40062 28533 ft 298 kts 50°
2026-05-08 00:15 41.56128 -81.37546 28795 ft 306 kts 51°
2026-05-08 00:16 41.56783 -81.35860 28965 ft 311 kts 51°
2026-05-08 00:16 41.57790 -81.33260 29209 ft 318 kts 52°
2026-05-08 00:16 41.59159 -81.29718 29539 ft 326 kts 53°
2026-05-08 00:16 41.59856 -81.27913 29706 ft 330 kts 53°
2026-05-08 00:17 41.61284 -81.24211 30050 ft 337 kts 53°
2026-05-08 00:17 41.62366 -81.21402 30316 ft 342 kts 54°
2026-05-08 00:17 41.63466 -81.18542 30586 ft 347 kts 53°
2026-05-08 00:17 41.64587 -81.15627 30848 ft 352 kts 54°
2026-05-08 00:18 41.65707 -81.12711 31114 ft 357 kts 54°
2026-05-08 00:18 41.66473 -81.10714 31290 ft 360 kts 54°
2026-05-08 00:18 41.67625 -81.07710 31550 ft 364 kts 55°
2026-05-08 00:18 41.69181 -81.03647 31871 ft 368 kts 54°
2026-05-08 00:19 41.70348 -81.00597 32106 ft 371 kts 54°
2026-05-08 00:19 41.71141 -80.98523 32261 ft 373 kts 54°
2026-05-08 00:19 41.72712 -80.94409 32557 ft 376 kts 55°
2026-05-08 00:19 41.73911 -80.91266 32764 ft 378 kts 55°
2026-05-08 00:20 41.75110 -80.88118 32973 ft 380 kts 55°
2026-05-08 00:20 41.76309 -80.84967 33210 ft 381 kts 55°
2026-05-08 00:20 41.77516 -80.81793 33429 ft 382 kts 55°
2026-05-08 00:20 41.78719 -80.78624 33654 ft 383 kts 55°
2026-05-08 00:21 41.79926 -80.75445 33890 ft 383 kts 56°
2026-05-08 00:21 41.81130 -80.72266 34128 ft 383 kts 55°
2026-05-08 00:21 41.82336 -80.69081 34372 ft 383 kts 55°
2026-05-08 00:21 41.83548 -80.65876 34614 ft 383 kts 56°
2026-05-08 00:22 41.84748 -80.62699 34836 ft 383 kts 56°
2026-05-08 00:22 41.85860 -80.59442 34919 ft 393 kts 64°
2026-05-08 00:22 41.87593 -80.52334 34930 ft 411 kts 68°
2026-05-08 00:23 41.89288 -80.44886 34935 ft 425 kts 69°
2026-05-08 00:23 41.91042 -80.37178 34935 ft 436 kts 68°
2026-05-08 00:24 41.92828 -80.29329 34930 ft 445 kts 70°
2026-05-08 00:24 41.94650 -80.21308 34930 ft 452 kts 70°
2026-05-08 00:25 41.96479 -80.13238 34932 ft 457 kts 70°
2026-05-08 00:25 41.98335 -80.05026 34934 ft 461 kts 70°
2026-05-08 00:26 42.00188 -79.96800 34932 ft 465 kts 70°
2026-05-08 00:26 42.00838 -79.93907 34922 ft 466 kts 70°
2026-05-08 00:27 42.02726 -79.85483 34921 ft 467 kts 70°
2026-05-08 00:27 42.04613 -79.77026 34916 ft 468 kts 70°
2026-05-08 00:28 42.06471 -79.68670 34911 ft 468 kts 70°
2026-05-08 00:28 42.08335 -79.60246 34914 ft 469 kts 70°
2026-05-08 00:29 42.10176 -79.51894 34918 ft 469 kts 70°
2026-05-08 00:29 42.12022 -79.43481 34917 ft 470 kts 70°
2026-05-08 00:30 42.13866 -79.35045 34921 ft 470 kts 70°
2026-05-08 00:30 42.15710 -79.26571 34928 ft 469 kts 71°
2026-05-08 00:31 42.17538 -79.18149 34921 ft 468 kts 71°
2026-05-08 00:31 42.19158 -79.09827 34922 ft 469 kts 77°
2026-05-08 00:32 42.20288 -79.01141 34909 ft 469 kts 79°
2026-05-08 00:32 42.21381 -78.92497 34904 ft 469 kts 79°
2026-05-08 00:33 42.22480 -78.83785 34895 ft 469 kts 79°
2026-05-08 00:33 42.23569 -78.75129 34892 ft 470 kts 79°
2026-05-08 00:34 42.24659 -78.66424 34891 ft 470 kts 79°
2026-05-08 00:34 42.25742 -78.57722 34896 ft 470 kts 79°
2026-05-08 00:35 42.26812 -78.49058 34897 ft 470 kts 79°
2026-05-08 00:35 42.27882 -78.40354 34904 ft 470 kts 79°
2026-05-08 00:36 42.28945 -78.31652 34906 ft 471 kts 80°
2026-05-08 00:36 42.30004 -78.22948 34905 ft 470 kts 80°
2026-05-08 00:37 42.31052 -78.14268 34899 ft 470 kts 80°
2026-05-08 00:38 42.32614 -78.01218 34892 ft 470 kts 81°
2026-05-08 00:38 42.33648 -77.92521 34887 ft 470 kts 80°
2026-05-08 00:39 42.34681 -77.83763 34888 ft 470 kts 81°
2026-05-08 00:39 42.35705 -77.75030 34889 ft 470 kts 81°
2026-05-08 00:40 42.36719 -77.66305 34886 ft 471 kts 81°
2026-05-08 00:40 42.37720 -77.57627 34893 ft 471 kts 81°
2026-05-08 00:41 42.38728 -77.48845 34891 ft 471 kts 81°
2026-05-08 00:41 42.39723 -77.40086 34884 ft 472 kts 81°
2026-05-08 00:42 42.40713 -77.31332 34881 ft 472 kts 82°
2026-05-08 00:42 42.41698 -77.22563 34882 ft 471 kts 82°
2026-05-08 00:43 42.42675 -77.13814 34880 ft 471 kts 82°
2026-05-08 00:43 42.43646 -77.05057 34884 ft 471 kts 82°
2026-05-08 00:44 42.44605 -76.96328 34881 ft 471 kts 82°
2026-05-08 00:44 42.45557 -76.87557 34883 ft 471 kts 82°
2026-05-08 00:45 42.46499 -76.78824 34886 ft 471 kts 82°
2026-05-08 00:45 42.46972 -76.74425 34881 ft 471 kts 82°
2026-05-08 00:46 42.47599 -76.68587 34892 ft 471 kts 82°
2026-05-08 00:46 42.48537 -76.59806 34896 ft 472 kts 82°
2026-05-08 00:47 42.49474 -76.50947 34899 ft 472 kts 82°
2026-05-08 00:47 42.50398 -76.42153 34905 ft 473 kts 83°
2026-05-08 00:48 42.51316 -76.33350 34903 ft 473 kts 83°
2026-05-08 00:48 42.52228 -76.24503 34894 ft 472 kts 83°
2026-05-08 00:49 42.53131 -76.15686 34901 ft 472 kts 83°
2026-05-08 00:49 42.54037 -76.06785 34900 ft 472 kts 83°
2026-05-08 00:50 42.54923 -75.98003 34902 ft 472 kts 83°
2026-05-08 00:50 42.55808 -75.89152 34883 ft 473 kts 83°
2026-05-08 00:51 42.56681 -75.80342 34875 ft 473 kts 84°
2026-05-08 00:51 42.57550 -75.71503 34881 ft 473 kts 84°
2026-05-08 00:52 42.58418 -75.62633 34879 ft 474 kts 83°
2026-05-08 00:52 42.59277 -75.53796 34896 ft 474 kts 84°
2026-05-08 00:53 42.60129 -75.44931 34890 ft 475 kts 84°
2026-05-08 00:53 42.60974 -75.36062 34883 ft 476 kts 84°
2026-05-08 00:54 42.61827 -75.27048 34877 ft 475 kts 85°
2026-05-08 00:54 42.62663 -75.18156 34868 ft 475 kts 84°
2026-05-08 00:55 42.63492 -75.09267 34879 ft 475 kts 85°
2026-05-08 00:55 42.64320 -75.00308 34860 ft 475 kts 85°
2026-05-08 00:56 42.65134 -74.91412 34866 ft 475 kts 85°
2026-05-08 00:56 42.65953 -74.82404 34866 ft 475 kts 85°
2026-05-08 00:57 42.66756 -74.73489 34875 ft 476 kts 85°
2026-05-08 00:57 42.67551 -74.64595 34883 ft 476 kts 85°
2026-05-08 00:58 42.68337 -74.55679 34880 ft 477 kts 85°
2026-05-08 00:58 42.69114 -74.46785 34886 ft 478 kts 85°
2026-05-08 00:59 42.69891 -74.37814 34877 ft 479 kts 85°
2026-05-08 00:59 42.70661 -74.28805 34894 ft 479 kts 86°
2026-05-08 01:00 42.71427 -74.19803 34895 ft 480 kts 86°
2026-05-08 01:00 42.72192 -74.10729 34901 ft 480 kts 86°
2026-05-08 01:01 42.72942 -74.01771 34876 ft 481 kts 86°
2026-05-08 01:01 42.73690 -73.92718 34898 ft 481 kts 86°
2026-05-08 01:02 42.74429 -73.83672 34888 ft 481 kts 86°
2026-05-08 01:02 42.74612 -73.74610 34893 ft 478 kts 95°
2026-05-08 01:03 42.74573 -73.69763 34888 ft 478 kts 95°
2026-05-08 01:03 42.74493 -73.60701 34878 ft 478 kts 95°
2026-05-08 01:04 42.74410 -73.51633 34885 ft 479 kts 95°
2026-05-08 01:04 42.74355 -73.47002 33902 ft 506 kts 95°
2026-05-08 01:04 42.74265 -73.42210 33192 ft 508 kts 96°
2026-05-08 01:04 42.74171 -73.37442 32993 ft 506 kts 96°
2026-05-08 01:05 42.74092 -73.32664 32680 ft 502 kts 96°
2026-05-08 01:05 42.74020 -73.27945 32354 ft 500 kts 96°
2026-05-08 01:05 42.73952 -73.23214 31948 ft 499 kts 96°
2026-05-08 01:05 42.73884 -73.18533 31444 ft 501 kts 96°
2026-05-08 01:06 42.73812 -73.13838 30945 ft 502 kts 97°
2026-05-08 01:06 42.73523 -73.09096 30391 ft 496 kts 105°
2026-05-08 01:06 42.72743 -73.04567 29816 ft 487 kts 115°
2026-05-08 01:06 42.71526 -73.00431 29245 ft 464 kts 126°
2026-05-08 01:07 42.69909 -72.96735 28653 ft 440 kts 135°
2026-05-08 01:07 42.67992 -72.93632 27956 ft 413 kts 149°
2026-05-08 01:07 42.66445 -72.92469 25951 ft 411 kts 175°
2026-05-08 01:07 42.64870 -72.92256 17847 ft 195 kts 313°
2026-05-08 01:08 42.64794 -72.91973 14888 ft 172 kts 248°